Terminal Aerodrome Forecast
Issued by NWS St Louis, MO

Home | Current Version | Previous Version | Text Only | Print | Product List | Glossary On
Versions: 1 2 3 4 5 6 7 8 9 10 11 12 13 14 15 16 17 18 19 20 21 22 23 24 25 26 27
000
FTUS43 KLSX 011136
TAFCOU
TAF
KCOU 011136Z 0112/0212 VRB05KT 4SM SHRA VCTS OVC040CB
     FM012000 17009KT P6SM OVC060
     FM020100 11004KT 3SM SHRA VCTS OVC025CB
     FM021000 09008KT 5SM BR OVC010=

USA.gov is the U.S. government's official web portal to all federal, state and local government web resources and services.